Time,TemperatureF,DewpointF,PressureIn,WindDirection,WindDirectionDegrees,WindSpeedMPH,WindSpeedGustMPH,Humidity,HourlyPrecipIn,Conditions,Clouds,dailyrainin,SoftwareType,DateUTC
2013-03-08 00:00:00,33.7,27.5,30.20,NNE,18,0.0,0.0,78,0.00,,,0.00,VWS V12.08,2013-03-08 05:00:00,
2013-03-08 00:01:00,33.7,27.2,30.20,NE,39,0.0,0.0,77,0.00,,,0.00,VWS V12.08,2013-03-08 05:01:00,
2013-03-08 00:06:00,33.7,27.2,30.20,NE,49,0.0,0.0,77,0.00,,,0.00,VWS V12.08,2013-03-08 05:06:00,
2013-03-08 00:11:00,33.7,27.2,30.20,NE,49,0.0,0.0,77,0.00,,,0.00,VWS V12.08,2013-03-08 05:11:00,
2013-03-08 00:16:00,33.5,26.7,30.20,NE,49,0.0,0.0,76,0.00,,,0.00,VWS V12.08,2013-03-08 05:16:00,
2013-03-08 00:21:00,33.5,26.4,30.20,NE,54,0.0,2.7,75,0.00,,,0.00,VWS V12.08,2013-03-08 05:21:00,
2013-03-08 00:26:00,33.5,26.4,30.20,NE,37,2.7,5.4,75,0.00,,,0.00,VWS V12.08,2013-03-08 05:26:00,
2013-03-08 00:31:00,33.5,26.4,30.20,ENE,59,0.0,3.6,75,0.00,,,0.00,VWS V12.08,2013-03-08 05:31:00,
2013-03-08 00:36:00,33.3,25.9,30.20,NNE,18,4.0,5.4,74,0.00,,,0.00,VWS V12.08,2013-03-08 05:36:00,
2013-03-08 00:41:00,33.3,25.6,30.20,East,101,2.7,3.6,73,0.00,,,0.00,VWS V12.08,2013-03-08 05:41:00,
2013-03-08 00:46:00,33.1,25.8,30.20,NNE,24,2.2,2.7,74,0.00,,,0.00,VWS V12.08,2013-03-08 05:46:00,
2013-03-08 00:51:00,32.9,25.6,30.20,NE,56,2.2,5.8,74,0.00,,,0.00,VWS V12.08,2013-03-08 05:51:00,
2013-03-08 00:56:00,32.9,25.2,30.20,NE,35,0.0,4.0,73,0.00,,,0.00,VWS V12.08,2013-03-08 05:56:00,
2013-03-08 01:01:00,32.8,24.7,30.20,NNE,24,2.7,3.1,72,0.00,,,0.00,VWS V12.08,2013-03-08 06:01:00,
2013-03-08 01:06:00,32.6,24.6,30.20,NNE,31,3.6,4.0,72,0.00,,,0.00,VWS V12.08,2013-03-08 06:06:00,
2013-03-08 01:11:00,32.4,24.1,30.20,North,0,0.0,4.0,71,0.00,,,0.00,VWS V12.08,2013-03-08 06:11:00,
2013-03-08 01:16:00,32.2,23.5,30.20,NE,34,6.3,6.3,70,0.00,,,0.00,VWS V12.08,2013-03-08 06:16:00,
2013-03-08 01:21:00,32.0,23.4,30.20,NNE,23,2.7,4.0,70,0.00,,,0.00,VWS V12.08,2013-03-08 06:21:00,
2013-03-08 01:26:00,31.7,23.0,30.20,NNE,21,2.7,3.6,70,0.00,,,0.00,VWS V12.08,2013-03-08 06:26:00,
2013-03-08 01:31:00,31.7,23.0,30.20,NE,45,3.6,3.6,70,0.00,,,0.00,VWS V12.08,2013-03-08 06:31:00,
2013-03-08 01:36:00,31.7,23.0,30.20,NE,54,3.1,3.1,70,0.00,,,0.00,VWS V12.08,2013-03-08 06:36:00,
2013-03-08 01:41:00,31.9,23.2,30.20,NNE,24,0.0,3.1,70,0.00,,,0.00,VWS V12.08,2013-03-08 06:41:00,
2013-03-08 01:46:00,31.9,23.2,30.20,NE,38,2.2,4.0,70,0.00,,,0.00,VWS V12.08,2013-03-08 06:46:00,
2013-03-08 01:51:00,32.0,23.4,30.20,NNE,29,0.0,0.0,70,0.00,,,0.00,VWS V12.08,2013-03-08 06:51:00,
2013-03-08 01:56:00,32.0,23.7,30.20,NNE,22,3.1,3.6,71,0.00,,,0.00,VWS V12.08,2013-03-08 06:56:00,
2013-03-08 02:01:00,32.0,23.0,30.20,NNE,25,0.0,3.1,69,0.00,,,0.00,VWS V12.08,2013-03-08 07:01:00,
2013-03-08 02:06:00,32.0,23.7,30.20,ENE,70,3.1,3.6,71,0.00,,,0.00,VWS V12.08,2013-03-08 07:06:00,
2013-03-08 02:11:00,32.0,22.7,30.20,NNE,12,2.7,3.1,68,0.00,,,0.00,VWS V12.08,2013-03-08 07:11:00,
2013-03-08 02:16:00,32.0,22.3,30.20,SE,142,0.0,3.1,67,0.00,,,0.00,VWS V12.08,2013-03-08 07:16:00,
2013-03-08 02:21:00,32.2,22.1,30.20,East,84,2.7,5.4,66,0.00,,,0.00,VWS V12.08,2013-03-08 07:21:00,
2013-03-08 02:26:00,32.0,21.6,30.20,ENE,58,3.1,5.4,65,0.00,,,0.00,VWS V12.08,2013-03-08 07:26:00,
2013-03-08 02:31:00,32.0,21.6,30.20,ENE,73,0.0,0.0,65,0.00,,,0.00,VWS V12.08,2013-03-08 07:31:00,
2013-03-08 02:36:00,32.0,21.2,30.20,NE,48,0.0,0.0,64,0.00,,,0.00,VWS V12.08,2013-03-08 07:36:00,
2013-03-08 02:41:00,32.0,20.9,30.20,North,353,0.0,0.0,63,0.00,,,0.00,VWS V12.08,2013-03-08 07:41:00,
2013-03-08 02:46:00,32.2,21.0,30.20,SE,142,0.0,0.0,63,0.00,,,0.00,VWS V12.08,2013-03-08 07:46:00,
2013-03-08 02:51:00,32.2,21.4,30.20,East,90,0.0,0.0,64,0.00,,,0.00,VWS V12.08,2013-03-08 07:51:00,
2013-03-08 02:56:00,32.2,21.4,30.20,NNE,21,0.0,0.0,64,0.00,,,0.00,VWS V12.08,2013-03-08 07:56:00,
2013-03-08 03:01:00,32.2,21.4,30.20,SSE,151,0.0,0.0,64,0.00,,,0.00,VWS V12.08,2013-03-08 08:01:00,
2013-03-08 03:06:00,32.2,21.4,30.20,NNE,31,0.0,0.0,64,0.00,,,0.00,VWS V12.08,2013-03-08 08:06:00,
2013-03-08 03:11:00,32.2,21.4,30.20,WNW,289,0.0,0.0,64,0.00,,,0.00,VWS V12.08,2013-03-08 08:11:00,
2013-03-08 03:16:00,32.2,21.4,30.20,NNE,33,0.0,0.0,64,0.00,,,0.00,VWS V12.08,2013-03-08 08:16:00,
2013-03-08 03:21:00,32.2,21.4,30.20,East,88,0.0,0.0,64,0.00,,,0.00,VWS V12.08,2013-03-08 08:21:00,
2013-03-08 03:26:00,32.0,20.9,30.20,North,350,0.0,0.0,63,0.00,,,0.00,VWS V12.08,2013-03-08 08:26:00,
2013-03-08 03:31:00,32.0,20.5,30.20,East,99,0.0,0.0,62,0.00,,,0.00,VWS V12.08,2013-03-08 08:31:00,
2013-03-08 03:36:00,32.0,20.5,30.20,SSE,149,0.0,0.0,62,0.00,,,0.00,VWS V12.08,2013-03-08 08:36:00,
2013-03-08 03:41:00,32.0,20.1,30.20,NW,318,0.0,0.0,61,0.00,,,0.00,VWS V12.08,2013-03-08 08:41:00,
2013-03-08 03:46:00,31.9,20.0,30.20,NNW,342,0.0,0.0,61,0.00,,,0.00,VWS V12.08,2013-03-08 08:46:00,
2013-03-08 03:51:00,31.9,18.8,30.20,North,0,0.0,0.0,58,0.00,,,0.00,VWS V12.08,2013-03-08 08:51:00,
2013-03-08 03:56:00,31.9,19.2,30.20,North,2,0.0,0.0,59,0.00,,,0.00,VWS V12.08,2013-03-08 08:56:00,
2013-03-08 04:01:00,31.9,19.6,30.20,ESE,122,0.0,0.0,60,0.00,,,0.00,VWS V12.08,2013-03-08 09:01:00,
2013-03-08 04:06:00,31.9,18.8,30.20,ENE,78,0.0,0.0,58,0.00,,,0.00,VWS V12.08,2013-03-08 09:06:00,
2013-03-08 04:11:00,31.9,19.2,30.20,East,100,0.0,0.0,59,0.00,,,0.00,VWS V12.08,2013-03-08 09:11:00,
2013-03-08 04:16:00,31.7,19.4,30.20,SE,125,0.0,0.0,60,0.00,,,0.00,VWS V12.08,2013-03-08 09:16:00,
2013-03-08 04:21:00,31.7,17.8,30.20,NW,321,0.0,0.0,56,0.00,,,0.00,VWS V12.08,2013-03-08 09:21:00,
2013-03-08 04:26:00,31.7,17.8,30.20,NNE,18,0.0,0.0,56,0.00,,,0.00,VWS V12.08,2013-03-08 09:26:00,
2013-03-08 04:31:00,31.7,17.4,30.20,NE,55,0.0,0.0,55,0.00,,,0.00,VWS V12.08,2013-03-08 09:31:00,
2013-03-08 04:36:00,31.7,17.4,30.20,ESE,115,0.0,0.0,55,0.00,,,0.00,VWS V12.08,2013-03-08 09:36:00,
2013-03-08 04:41:00,31.7,18.2,30.20,NE,39,0.0,0.0,57,0.00,,,0.00,VWS V12.08,2013-03-08 09:41:00,
2013-03-08 04:46:00,31.7,17.4,30.20,North,4,0.0,0.0,55,0.00,,,0.00,VWS V12.08,2013-03-08 09:46:00,
2013-03-08 04:51:00,31.7,17.8,30.23,NE,55,0.0,0.0,56,0.00,,,0.00,VWS V12.08,2013-03-08 09:51:00,
2013-03-08 04:56:00,31.5,16.8,30.23,North,8,0.0,0.0,54,0.00,,,0.00,VWS V12.08,2013-03-08 09:56:00,
2013-03-08 05:01:00,31.5,16.8,30.23,East,82,0.0,0.0,54,0.00,,,0.00,VWS V12.08,2013-03-08 10:01:00,
2013-03-08 05:06:00,31.3,16.6,30.23,NNE,25,0.0,0.0,54,0.00,,,0.00,VWS V12.08,2013-03-08 10:06:00,
2013-03-08 05:11:00,31.1,16.0,30.23,NE,45,0.0,0.0,53,0.00,,,0.00,VWS V12.08,2013-03-08 10:11:00,
2013-03-08 05:16:00,31.0,16.7,30.23,NE,44,0.0,0.0,55,0.00,,,0.00,VWS V12.08,2013-03-08 10:16:00,
2013-03-08 06:52:00,29.7,17.9,30.26,ENE,78,0.0,0.0,61,0.00,,,0.00,VWS V12.08,2013-03-08 11:52:00,
2013-03-08 06:57:00,29.7,17.9,30.26,NE,43,0.0,0.0,61,0.00,,,0.00,VWS V12.08,2013-03-08 11:57:00,
2013-03-08 07:02:00,29.7,17.9,30.26,NNE,27,0.0,0.0,61,0.00,,,0.00,VWS V12.08,2013-03-08 12:02:00,
2013-03-08 07:07:00,29.7,17.9,30.26,SE,134,0.0,0.0,61,0.00,,,0.00,VWS V12.08,2013-03-08 12:07:00,
2013-03-08 07:12:00,29.7,17.9,30.26,NE,50,0.0,0.0,61,0.00,,,0.00,VWS V12.08,2013-03-08 12:12:00,
2013-03-08 07:17:00,29.5,18.1,30.26,NE,52,0.0,0.0,62,0.00,,SCT033,0.00,VWS V12.08,2013-03-08 12:17:00,
2013-03-08 07:22:00,29.5,18.1,30.26,ENE,60,0.0,0.0,62,0.00,,SCT033,0.00,VWS V12.08,2013-03-08 12:22:00,
2013-03-08 07:27:00,29.5,18.1,30.26,NNW,344,0.0,0.0,62,0.00,,SCT033,0.00,VWS V12.08,2013-03-08 12:27:00,
2013-03-08 07:32:00,29.7,18.3,30.26,ENE,61,0.0,0.0,62,0.00,,SCT033,0.00,VWS V12.08,2013-03-08 12:32:00,
2013-03-08 07:37:00,29.9,18.5,30.29,NNE,30,0.0,0.0,62,0.00,,SCT033,0.00,VWS V12.08,2013-03-08 12:37:00,
2013-03-08 07:42:00,29.9,18.5,30.29,NE,43,0.0,0.0,62,0.00,,SCT033,0.00,VWS V12.08,2013-03-08 12:42:00,
2013-03-08 07:47:00,30.1,18.2,30.29,NE,48,0.0,0.0,61,0.00,,SCT033,0.00,VWS V12.08,2013-03-08 12:47:00,
2013-03-08 07:52:00,30.4,18.6,30.29,ESE,123,0.0,0.0,61,0.00,,SCT033,0.00,VWS V12.08,2013-03-08 12:52:00,
2013-03-08 07:57:00,30.6,18.8,30.29,NNE,25,0.0,0.0,61,0.00,,SCT033,0.00,VWS V12.08,2013-03-08 12:57:00,
2013-03-08 08:02:00,30.6,18.8,30.29,NE,43,0.0,0.0,61,0.00,,BKN030,0.00,VWS V12.08,2013-03-08 13:02:00,
2013-03-08 08:07:00,30.8,18.9,30.29,NE,44,0.0,0.0,61,0.00,,BKN030,0.00,VWS V12.08,2013-03-08 13:07:00,
2013-03-08 08:12:00,31.1,19.3,30.29,North,11,0.0,0.0,61,0.00,,BKN030,0.00,VWS V12.08,2013-03-08 13:12:00,
2013-03-08 08:17:00,31.3,19.1,30.29,SSW,203,0.0,0.0,60,0.00,,BKN030,0.00,VWS V12.08,2013-03-08 13:17:00,
2013-03-08 08:22:00,31.7,19.4,30.29,NW,315,0.0,0.0,60,0.00,,BKN030,0.00,VWS V12.08,2013-03-08 13:22:00,
2013-03-08 08:27:00,31.9,19.2,30.29,ESE,117,0.0,0.0,59,0.00,,BKN030,0.00,VWS V12.08,2013-03-08 13:27:00,
2013-03-08 08:32:00,31.7,18.6,30.29,East,80,0.0,0.0,58,0.00,,BKN030,0.00,VWS V12.08,2013-03-08 13:32:00,
2013-03-08 08:37:00,31.7,18.6,30.29,East,88,0.0,0.0,58,0.00,,BKN030,0.00,VWS V12.08,2013-03-08 13:37:00,
2013-03-08 08:42:00,31.9,19.6,30.29,NE,41,0.0,0.0,60,0.00,,BKN030,0.00,VWS V12.08,2013-03-08 13:42:00,
2013-03-08 08:47:00,31.9,18.8,30.29,NNE,14,0.0,0.0,58,0.00,,BKN021,0.00,VWS V12.08,2013-03-08 13:47:00,
2013-03-08 08:52:00,32.0,19.0,30.29,ENE,78,0.0,0.0,58,0.00,,BKN021,0.00,VWS V12.08,2013-03-08 13:52:00,
2013-03-08 08:57:00,32.0,19.0,30.29,NNW,344,0.0,0.0,58,0.00,,BKN021,0.00,VWS V12.08,2013-03-08 13:57:00,
2013-03-08 09:02:00,31.9,18.8,30.29,NNE,28,0.0,0.0,58,0.00,,BKN021,0.00,VWS V12.08,2013-03-08 14:02:00,
2013-03-08 09:07:00,32.0,19.0,30.29,NNE,25,0.0,0.0,58,0.00,,BKN021,0.00,VWS V12.08,2013-03-08 14:07:00,
2013-03-08 09:12:00,32.0,19.4,30.29,North,11,0.0,0.0,59,0.00,,BKN021,0.00,VWS V12.08,2013-03-08 14:12:00,
2013-03-08 09:17:00,32.2,19.5,30.29,NE,55,0.0,0.0,59,0.00,,BKN021,0.00,VWS V12.08,2013-03-08 14:17:00,
2013-03-08 09:22:00,32.2,19.5,30.32,NNE,15,0.0,0.0,59,0.00,,BKN021,0.00,VWS V12.08,2013-03-08 14:22:00,
2013-03-08 09:27:00,32.2,19.1,30.32,ESE,111,0.0,0.0,58,0.00,,BKN021,0.00,VWS V12.08,2013-03-08 14:27:00,
2013-03-08 09:32:00,32.2,19.5,30.32,NE,35,0.0,0.0,59,0.00,,BKN021,0.00,VWS V12.08,2013-03-08 14:32:00,
2013-03-08 09:37:00,32.6,19.9,30.32,East,87,0.0,0.0,59,0.00,,BKN021,0.00,VWS V12.08,2013-03-08 14:37:00,
2013-03-08 09:42:00,33.1,20.4,30.32,NNE,21,0.0,0.0,59,0.00,,BKN021,0.00,VWS V12.08,2013-03-08 14:42:00,
2013-03-08 09:47:00,33.7,19.6,30.32,North,353,0.0,0.0,56,0.00,,OVC025,0.00,VWS V12.08,2013-03-08 14:47:00,
2013-03-08 09:52:00,33.7,19.2,30.32,NE,52,0.0,0.0,55,0.00,,OVC025,0.00,VWS V12.08,2013-03-08 14:52:00,
2013-03-08 09:57:00,33.5,18.6,30.32,ESE,117,0.0,0.0,54,0.00,,OVC025,0.00,VWS V12.08,2013-03-08 14:57:00,
2013-03-08 10:02:00,33.3,18.9,30.32,NE,34,0.0,0.0,55,0.00,,OVC025,0.00,VWS V12.08,2013-03-08 15:02:00,
2013-03-08 10:07:00,33.5,19.1,30.32,SW,235,0.0,0.0,55,0.00,,OVC025,0.00,VWS V12.08,2013-03-08 15:07:00,
2013-03-08 10:12:00,34.7,20.7,30.32,NNE,18,0.0,0.0,56,0.00,,OVC025,0.00,VWS V12.08,2013-03-08 15:12:00,
2013-03-08 10:17:00,34.6,19.2,30.32,NE,50,0.0,0.0,53,0.00,,OVC025,0.00,VWS V12.08,2013-03-08 15:17:00,
2013-03-08 10:22:00,35.3,20.3,30.32,SE,133,0.0,0.0,54,0.00,,OVC025,0.00,VWS V12.08,2013-03-08 15:22:00,
2013-03-08 10:27:00,36.4,20.9,30.32,NE,48,3.1,4.0,53,0.00,,OVC025,0.00,VWS V12.08,2013-03-08 15:27:00,
2013-03-08 10:32:00,36.4,20.0,30.32,SSE,159,3.6,5.4,51,0.00,,OVC025,0.00,VWS V12.08,2013-03-08 15:32:00,
2013-03-08 10:37:00,36.9,20.9,30.32,South,188,3.6,4.0,52,0.00,,OVC025,0.00,VWS V12.08,2013-03-08 15:37:00,
2013-03-08 10:42:00,36.9,20.0,30.32,NNE,29,2.2,5.8,50,0.00,,OVC025,0.00,VWS V12.08,2013-03-08 15:42:00,
2013-03-08 10:47:00,36.5,19.7,30.32,ENE,57,0.0,6.3,50,0.00,,OVC023,0.00,VWS V12.08,2013-03-08 15:47:00,
2013-03-08 10:52:00,37.6,21.1,30.32,South,174,0.0,3.1,51,0.00,,OVC023,0.00,VWS V12.08,2013-03-08 15:52:00,
2013-03-08 10:57:00,38.0,20.5,30.32,ENE,73,5.8,8.1,49,0.00,,OVC023,0.00,VWS V12.08,2013-03-08 15:57:00,
2013-03-08 11:02:00,37.6,20.2,30.32,NNW,343,4.0,4.0,49,0.00,,OVC023,0.00,VWS V12.08,2013-03-08 16:02:00,
2013-03-08 11:07:00,37.3,19.9,30.29,North,353,3.6,4.9,49,0.00,,OVC023,0.00,VWS V12.08,2013-03-08 16:07:00,
2013-03-08 11:12:00,37.4,20.5,30.29,SE,137,4.0,4.9,50,0.00,,OVC023,0.00,VWS V12.08,2013-03-08 16:12:00,
2013-03-08 11:17:00,38.2,20.7,30.29,WSW,258,0.0,4.0,49,0.00,,OVC023,0.00,VWS V12.08,2013-03-08 16:17:00,
2013-03-08 11:22:00,38.0,20.0,30.29,SSW,206,4.0,4.9,48,0.00,,OVC023,0.00,VWS V12.08,2013-03-08 16:22:00,
2013-03-08 11:27:00,37.1,18.2,30.29,NNE,19,8.3,8.3,46,0.00,,OVC023,0.00,VWS V12.08,2013-03-08 16:27:00,
2013-03-08 11:32:00,37.1,19.7,30.29,NW,310,3.1,4.0,49,0.00,,OVC023,0.00,VWS V12.08,2013-03-08 16:32:00,
2013-03-08 11:37:00,36.9,19.1,30.29,NNE,32,5.4,8.3,48,0.00,,OVC023,0.00,VWS V12.08,2013-03-08 16:37:00,
2013-03-08 11:42:00,36.7,18.4,30.29,NE,47,2.7,3.6,47,0.00,,OVC023,0.00,VWS V12.08,2013-03-08 16:42:00,
2013-03-08 11:47:00,36.9,19.5,30.29,South,190,0.0,3.1,49,0.00,,OVC032,0.00,VWS V12.08,2013-03-08 16:47:00,
2013-03-08 11:52:00,37.3,19.9,30.29,East,91,0.0,0.0,49,0.00,,OVC032,0.00,VWS V12.08,2013-03-08 16:52:00,
2013-03-08 11:57:00,37.1,19.7,30.29,ESE,111,0.0,0.0,49,0.00,,OVC032,0.00,VWS V12.08,2013-03-08 16:57:00,
2013-03-08 12:02:00,36.9,19.1,30.29,SSE,161,0.0,0.0,48,0.00,,OVC036,0.00,VWS V12.08,2013-03-08 17:02:00,
2013-03-08 12:07:00,37.1,19.7,30.29,NW,312,0.0,0.0,49,0.00,,OVC036,0.00,VWS V12.08,2013-03-08 17:07:00,
2013-03-08 12:12:00,38.0,20.5,30.29,ENE,60,0.0,0.0,49,0.00,,OVC036,0.00,VWS V12.08,2013-03-08 17:12:00,
2013-03-08 12:17:00,37.6,19.7,30.29,North,10,0.0,0.0,48,0.00,,OVC032,0.00,VWS V12.08,2013-03-08 17:17:00,
2013-03-08 12:22:00,37.1,19.2,30.29,NE,46,0.0,0.0,48,0.00,,OVC032,0.00,VWS V12.08,2013-03-08 17:22:00,
2013-03-08 12:27:00,36.9,19.5,30.29,East,90,0.0,0.0,49,0.00,,OVC032,0.00,VWS V12.08,2013-03-08 17:27:00,
2013-03-08 12:32:00,36.7,19.4,30.29,NE,38,0.0,0.0,49,0.00,,OVC036,0.00,VWS V12.08,2013-03-08 17:32:00,
2013-03-08 12:37:00,36.9,19.5,30.29,WNW,289,0.0,0.0,49,0.00,,OVC036,0.00,VWS V12.08,2013-03-08 17:37:00,
2013-03-08 12:42:00,36.9,19.5,30.29,ENE,64,0.0,0.0,49,0.00,,OVC036,0.00,VWS V12.08,2013-03-08 17:42:00,
2013-03-08 12:47:00,37.4,20.0,30.29,NNE,25,0.0,0.0,49,0.00,,OVC032,0.00,VWS V12.08,2013-03-08 17:47:00,
2013-03-08 12:52:00,38.0,20.5,30.29,East,99,0.0,0.0,49,0.00,,OVC032,0.00,VWS V12.08,2013-03-08 17:52:00,
2013-03-08 12:57:00,38.0,19.6,30.29,North,357,0.0,0.0,47,0.00,,OVC032,0.00,VWS V12.08,2013-03-08 17:57:00,
2013-03-08 13:02:00,37.6,19.7,30.29,SE,140,0.0,0.0,48,0.00,,OVC032,0.00,VWS V12.08,2013-03-08 18:02:00,
2013-03-08 13:07:00,37.8,20.4,30.29,East,81,0.0,0.0,49,0.00,,OVC032,0.00,VWS V12.08,2013-03-08 18:07:00,
2013-03-08 13:12:00,37.8,20.4,30.29,SSE,166,0.0,0.0,49,0.00,,OVC032,0.00,VWS V12.08,2013-03-08 18:12:00,
2013-03-08 13:17:00,38.0,21.0,30.29,NNW,337,0.0,0.0,50,0.00,,OVC032,0.00,VWS V12.08,2013-03-08 18:17:00,
2013-03-08 13:22:00,38.0,20.5,30.29,SSE,160,0.0,0.0,49,0.00,,OVC032,0.00,VWS V12.08,2013-03-08 18:22:00,
2013-03-08 13:27:00,37.6,19.7,30.29,ENE,64,0.0,0.0,48,0.00,,OVC032,0.00,VWS V12.08,2013-03-08 18:27:00,
2013-03-08 13:32:00,37.3,19.9,30.29,East,82,0.0,0.0,49,0.00,,OVC032,0.00,VWS V12.08,2013-03-08 18:32:00,
2013-03-08 13:37:00,37.1,19.7,30.26,NE,56,0.0,0.0,49,0.00,,OVC032,0.00,VWS V12.08,2013-03-08 18:37:00,
2013-03-08 13:42:00,37.1,19.7,30.26,NE,54,0.0,0.0,49,0.00,,OVC032,0.00,VWS V12.08,2013-03-08 18:42:00,
2013-03-08 13:47:00,37.1,19.7,30.26,NNE,18,0.0,0.0,49,0.00,,OVC034,0.00,VWS V12.08,2013-03-08 18:47:00,
2013-03-08 13:52:00,37.3,20.3,30.26,WSW,257,0.0,0.0,50,0.00,,OVC034,0.00,VWS V12.08,2013-03-08 18:52:00,
2013-03-08 13:57:00,37.4,20.0,30.26,NNE,12,0.0,0.0,49,0.00,,OVC034,0.00,VWS V12.08,2013-03-08 18:57:00,
2013-03-08 14:02:00,37.4,20.0,30.26,NNW,345,0.0,0.0,49,0.00,,OVC034,0.00,VWS V12.08,2013-03-08 19:02:00,
2013-03-08 14:07:00,37.6,20.2,30.26,NNE,24,0.0,0.0,49,0.00,,OVC034,0.00,VWS V12.08,2013-03-08 19:07:00,
2013-03-08 14:12:00,37.8,20.4,30.26,ENE,57,0.0,0.0,49,0.00,,OVC034,0.00,VWS V12.08,2013-03-08 19:12:00,
2013-03-08 14:17:00,38.0,20.0,30.26,NNW,335,0.0,0.0,48,0.00,,OVC034,0.00,VWS V12.08,2013-03-08 19:17:00,
2013-03-08 14:22:00,37.4,20.0,30.26,NE,49,0.0,0.0,49,0.00,,OVC034,0.00,VWS V12.08,2013-03-08 19:22:00,
2013-03-08 14:27:00,37.3,19.9,30.26,ENE,57,0.0,0.0,49,0.00,,OVC034,0.00,VWS V12.08,2013-03-08 19:27:00,
2013-03-08 14:32:00,37.3,19.9,30.26,NE,49,0.0,0.0,49,0.00,,OVC034,0.00,VWS V12.08,2013-03-08 19:32:00,
2013-03-08 14:37:00,37.6,20.7,30.26,SSW,206,0.0,0.0,50,0.00,,OVC034,0.00,VWS V12.08,2013-03-08 19:37:00,
2013-03-08 14:42:00,38.2,21.2,30.26,SSW,212,0.0,0.0,50,0.00,,OVC034,0.00,VWS V12.08,2013-03-08 19:42:00,
2013-03-08 14:47:00,38.2,20.2,30.26,NE,38,0.0,0.0,48,0.00,,OVC034,0.00,VWS V12.08,2013-03-08 19:47:00,
2013-03-08 14:52:00,38.0,20.5,30.26,ENE,59,0.0,0.0,49,0.00,,OVC034,0.00,VWS V12.08,2013-03-08 19:52:00,
2013-03-08 14:57:00,38.0,20.5,30.26,North,7,0.0,0.0,49,0.00,,OVC034,0.00,VWS V12.08,2013-03-08 19:57:00,
2013-03-08 15:02:00,37.3,19.4,30.26,NE,48,0.0,0.0,48,0.00,,OVC034,0.00,VWS V12.08,2013-03-08 20:02:00,
2013-03-08 15:07:00,37.1,19.7,30.29,East,90,0.0,0.0,49,0.00,,OVC034,0.00,VWS V12.08,2013-03-08 20:07:00,
2013-03-08 15:12:00,36.9,19.5,30.29,NNE,16,0.0,0.0,49,0.00,,OVC034,0.00,VWS V12.08,2013-03-08 20:12:00,
2013-03-08 15:17:00,37.1,19.7,30.29,North,8,0.0,0.0,49,0.00,,OVC034,0.00,VWS V12.08,2013-03-08 20:17:00,
2013-03-08 15:22:00,37.1,20.2,30.29,East,84,0.0,0.0,50,0.00,,OVC034,0.00,VWS V12.08,2013-03-08 20:22:00,
2013-03-08 15:27:00,37.1,20.6,30.29,ESE,113,0.0,0.0,51,0.00,,OVC034,0.00,VWS V12.08,2013-03-08 20:27:00,
2013-03-08 15:32:00,37.1,20.2,30.29,SE,141,0.0,0.0,50,0.00,,OVC034,0.00,VWS V12.08,2013-03-08 20:32:00,
2013-03-08 15:37:00,37.1,20.2,30.29,North,7,0.0,0.0,50,0.00,,OVC034,0.00,VWS V12.08,2013-03-08 20:37:00,
2013-03-08 15:42:00,37.1,20.2,30.29,WSW,243,0.0,0.0,50,0.00,,OVC034,0.00,VWS V12.08,2013-03-08 20:42:00,
2013-03-08 15:47:00,37.3,20.3,30.29,SE,144,0.0,0.0,50,0.00,,OVC034,0.00,VWS V12.08,2013-03-08 20:47:00,
2013-03-08 15:52:00,37.4,21.0,30.29,SSW,200,0.0,0.0,51,0.00,,OVC034,0.00,VWS V12.08,2013-03-08 20:52:00,
2013-03-08 15:57:00,37.4,20.5,30.29,NNW,327,0.0,0.0,50,0.00,,OVC034,0.00,VWS V12.08,2013-03-08 20:57:00,
2013-03-08 16:02:00,37.4,20.5,30.29,NW,304,0.0,0.0,50,0.00,,OVC032,0.00,VWS V12.08,2013-03-08 21:02:00,
2013-03-08 16:07:00,37.4,20.5,30.29,NW,318,0.0,0.0,50,0.00,,OVC032,0.00,VWS V12.08,2013-03-08 21:07:00,
2013-03-08 16:12:00,37.4,21.0,30.29,East,97,0.0,0.0,51,0.00,,OVC032,0.00,VWS V12.08,2013-03-08 21:12:00,
2013-03-08 16:17:00,37.4,21.0,30.29,NE,37,0.0,0.0,51,0.00,,OVC032,0.00,VWS V12.08,2013-03-08 21:17:00,
2013-03-08 16:22:00,37.4,21.0,30.29,ENE,58,0.0,0.0,51,0.00,,OVC032,0.00,VWS V12.08,2013-03-08 21:22:00,
2013-03-08 16:27:00,37.3,20.8,30.29,East,92,0.0,0.0,51,0.00,,OVC032,0.00,VWS V12.08,2013-03-08 21:27:00,
2013-03-08 16:32:00,37.3,20.8,30.29,South,187,0.0,0.0,51,0.00,,OVC032,0.00,VWS V12.08,2013-03-08 21:32:00,
2013-03-08 16:37:00,37.3,20.8,30.29,East,101,0.0,0.0,51,0.00,,OVC032,0.00,VWS V12.08,2013-03-08 21:37:00,
2013-03-08 16:42:00,37.3,20.3,30.29,NE,56,0.0,0.0,50,0.00,,OVC032,0.00,VWS V12.08,2013-03-08 21:42:00,
2013-03-08 16:47:00,37.3,20.3,30.29,NE,42,0.0,0.0,50,0.00,,OVC034,0.00,VWS V12.08,2013-03-08 21:47:00,
2013-03-08 16:52:00,37.3,20.8,30.29,NE,46,0.0,0.0,51,0.00,,OVC034,0.00,VWS V12.08,2013-03-08 21:52:00,
2013-03-08 16:57:00,37.1,20.2,30.29,NE,51,0.0,0.0,50,0.00,,OVC034,0.00,VWS V12.08,2013-03-08 21:57:00,
2013-03-08 17:02:00,37.1,20.6,30.29,NNE,31,0.0,0.0,51,0.00,,OVC034,0.00,VWS V12.08,2013-03-08 22:02:00,
2013-03-08 17:07:00,37.1,20.6,30.29,NNE,13,0.0,0.0,51,0.00,,OVC034,0.00,VWS V12.08,2013-03-08 22:07:00,
2013-03-08 17:12:00,37.1,20.6,30.29,East,99,0.0,0.0,51,0.00,,OVC034,0.00,VWS V12.08,2013-03-08 22:12:00,
2013-03-08 17:17:00,37.1,20.6,30.29,NE,40,0.0,0.0,51,0.00,,OVC034,0.00,VWS V12.08,2013-03-08 22:17:00,
2013-03-08 17:22:00,37.1,20.2,30.29,NE,34,0.0,0.0,50,0.00,,OVC034,0.00,VWS V12.08,2013-03-08 22:22:00,
2013-03-08 17:27:00,36.9,20.0,30.29,NE,38,0.0,0.0,50,0.00,,OVC034,0.00,VWS V12.08,2013-03-08 22:27:00,
2013-03-08 17:32:00,36.9,20.5,30.29,NNE,26,0.0,0.0,51,0.00,,OVC034,0.00,VWS V12.08,2013-03-08 22:32:00,
2013-03-08 17:37:00,36.9,20.5,30.29,NNE,22,0.0,0.0,51,0.00,,OVC034,0.00,VWS V12.08,2013-03-08 22:37:00,
2013-03-08 17:42:00,36.9,20.0,30.29,NE,46,0.0,0.0,50,0.00,,OVC034,0.00,VWS V12.08,2013-03-08 22:42:00,
2013-03-08 17:47:00,36.7,20.3,30.29,ESE,110,0.0,0.0,51,0.00,,OVC034,0.00,VWS V12.08,2013-03-08 22:47:00,
2013-03-08 17:52:00,36.7,20.8,30.29,NE,49,0.0,0.0,52,0.00,,OVC034,0.00,VWS V12.08,2013-03-08 22:52:00,
2013-03-08 17:57:00,36.5,21.0,30.29,NNE,28,0.0,0.0,53,0.00,,OVC034,0.00,VWS V12.08,2013-03-08 22:57:00,
2013-03-08 18:02:00,36.4,20.0,30.29,NNE,28,0.0,0.0,51,0.00,,OVC034,0.00,VWS V12.08,2013-03-08 23:02:00,
2013-03-08 18:07:00,36.2,20.3,30.29,NNE,26,0.0,0.0,52,0.00,,OVC034,0.00,VWS V12.08,2013-03-08 23:07:00,
2013-03-08 18:12:00,36.2,20.3,30.29,NNE,32,0.0,0.0,52,0.00,,OVC034,0.00,VWS V12.08,2013-03-08 23:12:00,
2013-03-08 18:17:00,36.2,21.1,30.29,NNE,20,0.0,0.0,54,0.00,,OVC034,0.00,VWS V12.08,2013-03-08 23:17:00,
2013-03-08 18:22:00,36.2,21.6,30.29,ENE,73,0.0,0.0,55,0.00,,OVC034,0.00,VWS V12.08,2013-03-08 23:22:00,
2013-03-08 18:27:00,35.8,20.8,30.29,NNE,14,0.0,0.0,54,0.00,,OVC034,0.00,VWS V12.08,2013-03-08 23:27:00,
2013-03-08 18:32:00,35.8,21.2,30.29,North,4,0.0,0.0,55,0.00,,OVC034,0.00,VWS V12.08,2013-03-08 23:32:00,
2013-03-08 18:37:00,35.6,20.2,30.32,North,357,0.0,0.0,53,0.00,,OVC034,0.00,VWS V12.08,2013-03-08 23:37:00,
2013-03-08 18:42:00,35.6,20.6,30.32,North,4,0.0,0.0,54,0.00,,OVC034,0.00,VWS V12.08,2013-03-08 23:42:00,
2013-03-08 18:47:00,35.6,20.2,30.32,NE,46,0.0,0.0,53,0.00,,OVC034,0.00,VWS V12.08,2013-03-08 23:47:00,
2013-03-08 18:52:00,35.5,20.0,30.32,NE,49,0.0,0.0,53,0.00,,OVC034,0.00,VWS V12.08,2013-03-08 23:52:00,
2013-03-08 18:57:00,35.5,20.9,30.32,NNE,20,0.0,0.0,55,0.00,,OVC034,0.00,VWS V12.08,2013-03-08 23:57:00,
2013-03-08 19:02:00,35.3,20.7,30.32,ENE,58,0.0,0.0,55,0.00,,OVC034,0.00,VWS V12.08,2013-03-09 00:02:00,
2013-03-08 19:07:00,35.3,20.7,30.32,NNE,25,0.0,0.0,55,0.00,,OVC034,0.00,VWS V12.08,2013-03-09 00:07:00,
2013-03-08 19:12:00,35.3,20.7,30.32,NNE,25,0.0,0.0,55,0.00,,OVC034,0.00,VWS V12.08,2013-03-09 00:12:00,
2013-03-08 19:17:00,35.3,20.3,30.32,NNE,23,0.0,0.0,54,0.00,,OVC034,0.00,VWS V12.08,2013-03-09 00:17:00,
2013-03-08 19:22:00,35.3,20.3,30.32,NE,39,0.0,0.0,54,0.00,,OVC034,0.00,VWS V12.08,2013-03-09 00:22:00,
2013-03-08 19:27:00,35.3,20.7,30.32,NE,54,0.0,0.0,55,0.00,,OVC034,0.00,VWS V12.08,2013-03-09 00:27:00,
2013-03-08 19:32:00,35.1,20.6,30.32,North,11,0.0,0.0,55,0.00,,OVC034,0.00,VWS V12.08,2013-03-09 00:32:00,
2013-03-08 19:37:00,35.1,20.6,30.32,NNE,14,0.0,0.0,55,0.00,,OVC034,0.00,VWS V12.08,2013-03-09 00:37:00,
2013-03-08 19:42:00,35.1,21.4,30.32,NE,44,0.0,0.0,57,0.00,,OVC034,0.00,VWS V12.08,2013-03-09 00:42:00,
2013-03-08 19:47:00,34.9,22.1,30.32,NE,44,0.0,0.0,59,0.00,,OVC034,0.00,VWS V12.08,2013-03-09 00:47:00,
2013-03-08 19:52:00,34.9,21.7,30.32,NNE,20,0.0,0.0,58,0.00,,OVC034,0.00,VWS V12.08,2013-03-09 00:52:00,
2013-03-08 19:57:00,34.9,21.7,30.32,NNE,20,0.0,0.0,58,0.00,,OVC034,0.00,VWS V12.08,2013-03-09 00:57:00,
2013-03-08 20:02:00,34.9,22.5,30.32,NNE,22,0.0,0.0,60,0.00,,OVC034,0.00,VWS V12.08,2013-03-09 01:02:00,
2013-03-08 20:07:00,34.6,22.9,30.32,NNE,23,0.0,0.0,62,0.00,,OVC034,0.00,VWS V12.08,2013-03-09 01:07:00,
2013-03-08 20:12:00,34.6,23.6,30.32,NNE,28,0.0,0.0,64,0.00,,OVC034,0.00,VWS V12.08,2013-03-09 01:12:00,
2013-03-08 20:17:00,34.6,24.8,30.32,ENE,59,0.0,0.0,67,0.00,,OVC034,0.00,VWS V12.08,2013-03-09 01:17:00,
2013-03-08 20:22:00,34.4,23.5,30.32,North,10,0.0,0.0,64,0.00,,OVC034,0.00,VWS V12.08,2013-03-09 01:22:00,
2013-03-08 20:27:00,34.0,23.1,30.32,NE,35,0.0,0.0,64,0.00,,OVC034,0.00,VWS V12.08,2013-03-09 01:27:00,
2013-03-08 20:32:00,34.2,22.2,30.32,NNE,18,0.0,0.0,61,0.00,,OVC034,0.00,VWS V12.08,2013-03-09 01:32:00,
2013-03-08 20:37:00,34.2,21.8,30.32,NNE,25,0.0,0.0,60,0.00,,OVC034,0.00,VWS V12.08,2013-03-09 01:37:00,
2013-03-08 20:42:00,34.2,21.0,30.32,NE,38,0.0,0.0,58,0.00,,OVC034,0.00,VWS V12.08,2013-03-09 01:42:00,
2013-03-08 20:47:00,34.2,21.0,30.32,NE,42,0.0,0.0,58,0.00,,OVC034,0.00,VWS V12.08,2013-03-09 01:47:00,
2013-03-08 20:52:00,33.8,20.6,30.29,NNE,22,0.0,0.0,58,0.00,,OVC034,0.00,VWS V12.08,2013-03-09 01:52:00,
2013-03-08 20:57:00,33.7,20.9,30.29,North,7,0.0,0.0,59,0.00,,OVC034,0.00,VWS V12.08,2013-03-09 01:57:00,
2013-03-08 21:02:00,33.5,21.1,30.29,NNE,15,0.0,0.0,60,0.00,,OVC034,0.00,VWS V12.08,2013-03-09 02:02:00,
2013-03-08 21:07:00,33.1,21.1,30.29,NNE,25,3.1,4.0,61,0.00,,OVC034,0.00,VWS V12.08,2013-03-09 02:07:00,
2013-03-08 21:12:00,32.9,21.0,30.29,North,11,2.2,3.1,61,0.00,,OVC034,0.00,VWS V12.08,2013-03-09 02:12:00,
2013-03-08 21:17:00,32.8,21.2,30.29,NNE,12,0.0,2.7,62,0.00,,OVC034,0.00,VWS V12.08,2013-03-09 02:17:00,
2013-03-08 21:22:00,32.6,21.0,30.29,NNE,12,3.6,4.0,62,0.00,,OVC034,0.00,VWS V12.08,2013-03-09 02:22:00,
2013-03-08 21:28:00,32.6,21.0,30.29,North,357,2.7,4.0,62,0.00,,OVC034,0.00,VWS V12.08,2013-03-09 02:28:00,
2013-03-08 21:33:00,32.4,20.9,30.29,NNE,20,0.0,0.0,62,0.00,,OVC034,0.00,VWS V12.08,2013-03-09 02:33:00,
2013-03-08 21:38:00,32.4,20.9,30.29,NNE,14,0.0,3.1,62,0.00,,OVC034,0.00,VWS V12.08,2013-03-09 02:38:00,
2013-03-08 21:43:00,32.4,20.9,30.29,NNE,27,0.0,2.7,62,0.00,,OVC034,0.00,VWS V12.08,2013-03-09 02:43:00,
2013-03-08 21:48:00,32.4,20.9,30.29,NNE,25,0.0,0.0,62,0.00,,OVC032,0.00,VWS V12.08,2013-03-09 02:48:00,
2013-03-08 21:53:00,32.2,21.0,30.29,North,7,0.0,0.0,63,0.00,,OVC032,0.00,VWS V12.08,2013-03-09 02:53:00,
2013-03-08 21:58:00,32.0,20.9,30.29,North,7,0.0,0.0,63,0.00,,OVC032,0.00,VWS V12.08,2013-03-09 02:58:00,
2013-03-08 22:03:00,32.0,20.9,30.29,North,7,0.0,0.0,63,0.00,,OVC032,0.00,VWS V12.08,2013-03-09 03:03:00,
2013-03-08 22:08:00,32.0,20.9,30.32,North,7,0.0,0.0,63,0.00,,OVC032,0.00,VWS V12.08,2013-03-09 03:08:00,
2013-03-08 22:13:00,31.9,20.7,30.32,North,7,0.0,0.0,63,0.00,,OVC032,0.00,VWS V12.08,2013-03-09 03:13:00,
2013-03-08 22:18:00,32.0,20.9,30.32,North,7,0.0,0.0,63,0.00,,OVC032,0.00,VWS V12.08,2013-03-09 03:18:00,
2013-03-08 22:23:00,31.9,20.7,30.32,North,7,0.0,0.0,63,0.00,,OVC032,0.00,VWS V12.08,2013-03-09 03:23:00,
2013-03-08 22:28:00,31.7,20.5,30.32,North,7,0.0,0.0,63,0.00,,OVC032,0.00,VWS V12.08,2013-03-09 03:28:00,
2013-03-08 22:33:00,31.7,20.5,30.32,North,7,0.0,0.0,63,0.00,,OVC032,0.00,VWS V12.08,2013-03-09 03:33:00,
2013-03-08 22:38:00,31.5,20.4,30.32,North,7,0.0,0.0,63,0.00,,OVC032,0.00,VWS V12.08,2013-03-09 03:38:00,
2013-03-08 22:43:00,31.7,20.9,30.32,North,7,0.0,0.0,64,0.00,,OVC032,0.00,VWS V12.08,2013-03-09 03:43:00,
2013-03-08 22:48:00,31.7,20.9,30.32,North,7,0.0,0.0,64,0.00,,CLR,0.00,VWS V12.08,2013-03-09 03:48:00,
2013-03-08 22:53:00,31.3,20.2,30.32,North,7,0.0,0.0,63,0.00,,CLR,0.00,VWS V12.08,2013-03-09 03:53:00,
2013-03-08 22:58:00,31.1,20.0,30.32,North,7,0.0,0.0,63,0.00,,CLR,0.00,VWS V12.08,2013-03-09 03:58:00,
2013-03-08 23:03:00,31.0,19.9,30.32,North,7,0.0,0.0,63,0.00,,CLR,0.00,VWS V12.08,2013-03-09 04:03:00,
2013-03-08 23:08:00,31.0,20.2,30.32,North,7,0.0,0.0,64,0.00,,CLR,0.00,VWS V12.08,2013-03-09 04:08:00,
2013-03-08 23:13:00,30.8,20.4,30.32,North,7,0.0,0.0,65,0.00,,CLR,0.00,VWS V12.08,2013-03-09 04:13:00,
2013-03-08 23:18:00,30.8,20.8,30.32,North,7,0.0,0.0,66,0.00,,CLR,0.00,VWS V12.08,2013-03-09 04:18:00,
2013-03-08 23:23:00,30.4,21.1,30.32,North,7,0.0,0.0,68,0.00,,CLR,0.00,VWS V12.08,2013-03-09 04:23:00,
2013-03-08 23:28:00,30.4,21.1,30.32,North,7,0.0,0.0,68,0.00,,CLR,0.00,VWS V12.08,2013-03-09 04:28:00,
2013-03-08 23:33:00,30.2,21.0,30.32,North,7,0.0,0.0,68,0.00,,CLR,0.00,VWS V12.08,2013-03-09 04:33:00,
2013-03-08 23:38:00,30.6,21.3,30.32,North,7,0.0,0.0,68,0.00,,CLR,0.00,VWS V12.08,2013-03-09 04:38:00,
2013-03-08 23:43:00,30.4,21.1,30.32,North,7,0.0,0.0,68,0.00,,CLR,0.00,VWS V12.08,2013-03-09 04:43:00,
2013-03-08 23:48:00,30.4,21.1,30.32,North,7,0.0,0.0,68,0.00,,CLR,0.00,VWS V12.08,2013-03-09 04:48:00,
2013-03-08 23:53:00,30.4,21.1,30.32,North,7,0.0,0.0,68,0.00,,CLR,0.00,VWS V12.08,2013-03-09 04:53:00,
2013-03-08 23:58:00,30.4,21.1,30.32,North,7,0.0,0.0,68,0.00,,CLR,0.00,VWS V12.08,2013-03-09 04:58:00,